sat.trackr.live / text

‹ back to catalog

UNKNOWN

NORAD 82448

UNKNOWN UNKNOWN UNKNOWN

§ Identity

Operator
Country
Launch date
Launch site
Launch vehicle
Mass (kg)
RCS (m²)

External: N2YO · Heavens-Above

§ Orbital elements

Epoch: 2026-05-23T04:46:25.734144Z

Period
95.62 min
Inclination
85.8716°
Eccentricity
0.0009647
Mean motion
15.05891512 rev/d
Perigee alt
542.1 km
Apogee alt
555.5 km
Semi-major
6,926.9 km
B*
3.5035e-4
RAAN
112.9014°
Arg perigee
43.9785°
Mean anomaly
316.2215°
Rev number
46,132

§ Raw data

UNKNOWN1 82448U          26143.19890896  .00005126  00000+0  35035-3 0  99942 82448  85.8716 112.9014 0009647  43.9785 316.2215 15.05891512461326

JSON: /api/v1/satellites/82448 · /tle

For live sub-satellite position, see the globe view (requires WebGL).

§ Visibility from observer

Set your observer location to see the next 7 days of passes ≥ 10°. The values pass through the URL so the page stays shareable.

No JS? Fill the form by hand. The geolocation button needs JavaScript.